Doha, Qatar

12:28 PM AST on February 24, 2017 (GMT +0300)
Doha International

Weather History for OTBD - March, 2011

Change the Weather History Date:

Friday, March 25, 2011

  Actual Average Record
Temperature  
Mean Temperature 75 °F -  
Max Temperature 84 °F 88 °F 95 °F (2008)
Min Temperature 66 °F 68 °F 35 °F (2006)
Cooling Degree Days 10    
Growing Degree Days 25 (Base 50)    
Moisture  
Dew Point 56 °F    
Average Humidity 54    
Maximum Humidity 78    
Minimum Humidity 24    
Precipitation  
Precipitation 0.00 in 0.01 in - ()
Sea Level Pressure  
Sea Level Pressure 29.84 in    
Wind  
Wind Speed 8 mph ()    
Max Wind Speed 13 mph    
Max Gust Speed -    
Visibility 8.7 miles    
Events      
Averages and records for this station are not official NWS values.
T = Trace of Precipitation, MM = Missing Value Source: Averaged Metar Reports

Daily Weather History Graph

Daily Weather History Graph

Search for Another Location

Airport or City:

Trip Planner

Search our weather history database for the weather conditions in past years. The results will help you decide how hot, cold, wet, or windy it might be!

Date:

Astronomy

Mar. 25, 2011 Rise Set
Actual Time 5:33 AM AST 5:46 PM AST
Civil Twilight 5:10 AM AST 6:09 PM AST
Nautical Twilight 4:43 AM AST 6:36 PM AST
Astronomical Twilight 4:16 AM AST 7:03 PM AST
Moon 11:57 PM AST (3/25) 9:48 AM AST (3/25)
Length of Visible Light 12h 59m
Length of Day
12h 13m
Waning Gibbous, 62% of the Moon is Illuminated
Mar 25
Waning Gibbous
Mar 26
Last Quarter
Apr 3
New
Apr 11
First Quarter
Apr 18
Full

Hourly Weather History & Observations

Time (AST) Temp. Dew Point Humidity Pressure Visibility Wind Dir Wind Speed Gust Speed Precip Events Conditions
12:00 AM 69.8 °F 55.4 °F 60% 29.89 in - NNW 8.1 mph - N/A   Clear
12:30 AM 68.0 °F 55.4 °F 64% 29.89 in - NNW 10.4 mph - N/A   Clear
1:00 AM 68.0 °F 55.4 °F 64% 29.86 in - NNW 12.7 mph - N/A   Clear
1:30 AM 68.0 °F 55.4 °F 64% 29.86 in - NNW 11.5 mph - N/A   Clear
2:00 AM 68.0 °F 55.4 °F 64% 29.86 in - NNW 9.2 mph - N/A   Clear
2:30 AM 68.0 °F 55.4 °F 64% 29.86 in - NNW 9.2 mph - N/A   Clear
3:00 AM 67 °F 57 °F 61% 29.86 in 9 mi NNW 11.5 mph - -  
3:30 AM 66.2 °F 59.0 °F 78% 29.83 in - NNW 9.2 mph - N/A   Clear
4:00 AM 68.0 °F 59.0 °F 73% 29.83 in - North 9.2 mph - N/A   Clear
4:30 AM 68.0 °F 59.0 °F 73% 29.83 in - North 9.2 mph - N/A   Clear
5:00 AM 68.0 °F 59.0 °F 73% 29.83 in - North 8.1 mph - N/A   Clear
5:30 AM 68.0 °F 59.0 °F 73% 29.83 in - North 5.8 mph - N/A   Clear
6:00 AM 68.0 °F 60.8 °F 78% 29.86 in - North 5.8 mph - N/A   Clear
6:30 AM 69.8 °F 59.0 °F 68% 29.86 in - NNE 3.5 mph - N/A   Clear
7:00 AM 69.8 °F 57.2 °F 64% 29.89 in - NNE 3.5 mph - N/A   Clear
7:30 AM 73.4 °F 57.2 °F 57% 29.89 in - NE 4.6 mph - N/A   Clear
8:00 AM 75.2 °F 55.4 °F 50% 29.89 in - East 5.8 mph - N/A   Clear
8:30 AM 75.2 °F 57.2 °F 53% 29.89 in - ESE 8.1 mph - N/A   Clear
9:00 AM 78 °F 51 °F 29% 29.90 in 10 mi SE 9.2 mph - -  
9:00 AM 77.0 °F 51.8 °F 41% 29.89 in - SE 9.2 mph - N/A   Clear
9:30 AM 78.8 °F 53.6 °F 42% 29.89 in - SE 10.4 mph - N/A   Clear
10:00 AM 78.8 °F 53.6 °F 42% 29.89 in - SE 11.5 mph - N/A   Clear
10:30 AM 78.8 °F 53.6 °F 42% 29.86 in - SE 11.5 mph - N/A   Clear
11:00 AM 78.8 °F 53.6 °F 42% 29.86 in - SE 12.7 mph - N/A   Clear
11:30 AM 80.6 °F 50.0 °F 34% 29.86 in - SE 12.7 mph - N/A   Clear
12:00 PM 82.4 °F 48.2 °F 30% 29.83 in - SE 12.7 mph - N/A   Clear
12:30 PM 82.4 °F 48.2 °F 30% 29.83 in - SE 11.5 mph - N/A   Clear
1:30 PM 84.2 °F 44.6 °F 25% 29.80 in - SE 10.4 mph - N/A   Clear
2:00 PM 84.2 °F 48.2 °F 29% 29.80 in - ESE 10.4 mph - N/A   Clear
2:30 PM 82.4 °F 50.0 °F 32% 29.80 in - ESE 9.2 mph - N/A   Clear
3:00 PM 82 °F 51 °F 24% 29.80 in 9 mi East 9.2 mph - -  
3:00 PM 82.4 °F 51.8 °F 35% 29.80 in - East 9.2 mph - N/A   Clear
3:30 PM 82.4 °F 51.8 °F 35% 29.80 in - East 8.1 mph - N/A   Clear
4:00 PM 80.6 °F 50.0 °F 34% 29.80 in - East 6.9 mph - N/A   Clear
4:30 PM 80.6 °F 51.8 °F 37% 29.80 in - East 5.8 mph - N/A   Clear
5:00 PM 78.8 °F 50.0 °F 36% 29.80 in - ENE 5.8 mph - N/A   Clear
5:30 PM 77.0 °F 57.2 °F 50% 29.80 in - NE 6.9 mph - N/A   Clear
6:00 PM 77.0 °F 59.0 °F 54% 29.80 in - ENE 6.9 mph - N/A   Clear
6:30 PM 75.2 °F 62.6 °F 65% 29.80 in - NNE 5.8 mph - N/A   Clear
7:00 PM 73.4 °F 64.4 °F 73% 29.80 in - NNE 4.6 mph - N/A   Clear
7:30 PM 73.4 °F 62.6 °F 69% 29.80 in - NNE 5.8 mph - N/A   Clear
8:00 PM 73.4 °F 62.6 °F 69% 29.80 in - NE 4.6 mph - N/A   Clear
8:30 PM 73.4 °F 60.8 °F 65% 29.80 in - North 5.8 mph - N/A   Clear
9:00 PM 73 °F 63 °F 64% 29.83 in 7 mi NE 4.6 mph - -  
9:00 PM 73.4 °F 62.6 °F 69% 29.80 in - NE 4.6 mph - N/A   Clear
9:30 PM 73.4 °F 62.6 °F 69% 29.83 in - NE 5.8 mph - N/A   Clear
10:00 PM 73.4 °F 62.6 °F 69% 29.83 in - NE 4.6 mph - N/A   Clear
10:30 PM 73.4 °F 60.8 °F 65% 29.83 in - NE 3.5 mph - N/A   Clear
11:00 PM 73.4 °F 60.8 °F 65% 29.80 in - NE 4.6 mph - N/A   Clear
11:30 PM 73.4 °F 62.6 °F 69% 29.80 in - NE 3.5 mph - N/A   Clear